Flag for Malaysia Weather past 2 weeks in Johor Bahru, Malaysia

Now
84 °F

Passing clouds.


Feels Like: 94 °F
Forecast: 77 / 91 °F
Wind: 10 mph from South

Location: Singapore / Paya Lebar

Current Time: Sep 5, 2015 at 8:44:28 PM

Latest Report: Sep 5, 2015 at 8:00 PM


Visibility: 4 mi

Pressure: 29.86 "Hg

Humidity: 79%

Dew point: 77 °F

Location of Johor BahruLocation

Historic Weather in Johor Bahru — Graph

°F

Johor Bahru temperature yesterday

Maximum temperature yesterday: 90 °F (at 12:00 PM)
Minimum temperature yesterday: 82 °F (at 5:00 AM)
Average temperature yesterday: 86 °F

Past Weeks' High & Low Weather Summary

 TemperatureHumidityPressure
High91 °F (Aug 27, 3:00 PM)94% (Aug 27, 5:00 AM)29.95 "Hg (Aug 27, 5:00 AM)
Low79 °F (Aug 27, 5:00 AM)55% (Aug 26, 6:00 PM)29.74 "Hg (Aug 22, 4:00 PM)
Average86 °F73%29.84 "Hg
* Reported Aug 21 7:00 PM — Sep 5 7:00 PM, Johor Bahru, Weather by CustomWeather, © 2015

Note: Actual official high and low records may vary slightly from our data, if they occured in-between our weather recording intervals... More about our weather records

Advertising

Johor Bahru weather history for previous 24 hours

 ConditionsComfort  
Time TempWeatherWind HumidityBarometerVisibility
7:00 PM
Sat, Sep 5
86 °FPartly sunny.9 mph75%29.86 "Hg4 mi
6:00 PM88 °FPartly sunny.8 mph70%29.83 "Hg4 mi
5:00 PM88 °FPartly sunny.7 mph70%29.83 "Hg4 mi
4:00 PM88 °FScattered clouds.9 mph70%29.83 "Hg5 mi
3:00 PM90 °FPartly sunny.8 mph63%29.83 "Hg5 mi
2:00 PM90 °FPartly sunny.7 mph63%29.89 "Hg4 mi
1:00 PM90 °FPartly sunny.8 mph67%29.92 "Hg3 mi
12:00 PM86 °FPartly sunny.8 mph75%29.92 "Hg3 mi
11:00 AM86 °FPartly sunny.7 mph75%29.95 "Hg3 mi
10:00 AM86 °FPartly sunny.10 mph79%29.95 "Hg3 mi
9:00 AM84 °FPartly sunny.6 mph84%29.92 "Hg2 mi
8:00 AM82 °FPartly sunny.5 mph89%29.92 "Hg2 mi
7:00 AM82 °FPartly sunny.6 mph84%29.89 "Hg2 mi
6:00 AM82 °FPassing clouds.5 mph84%29.86 "Hg2 mi
5:00 AM82 °FPassing clouds.5 mph84%29.89 "Hg3 mi
11:00 PM
Fri, Sep 4
84 °FPassing clouds.7 mph79%29.92 "Hg4 mi
10:00 PM84 °FPassing clouds.7 mph79%29.89 "Hg5 mi
9:00 PM84 °FPassing clouds.6 mph79%29.89 "Hg5 mi
8:00 PM84 °FPassing clouds.5 mph79%29.86 "HgN/A
Weather by CustomWeather, © 2015

See weather overviewHow to use our weather pages